Meridian NAS, MS

11:57 PM CST on December 11, 2017 (GMT -0600)
Meridian Naval Air Station

Weather History for KNMM - November, 2013

Change the Weather History Date:

Friday, November 22, 2013

  Actual Average Record
Temperature  
Mean Temperature 60 °F -  
Max Temperature 64 °F 63 °F 78 °F (2011)
Min Temperature 57 °F 43 °F 21 °F (2000)
Degree Days  
Heating Degree Days 4    
Growing Degree Days 10 (Base 50)    
Moisture  
Dew Point 59 °F    
Average Humidity 91    
Maximum Humidity 94    
Minimum Humidity 84    
Precipitation  
Precipitation 0.09 in - - ()
Sea Level Pressure  
Sea Level Pressure 30.24 in    
Wind  
Wind Speed 4 mph (ENE)    
Max Wind Speed 10 mph    
Max Gust Speed -    
Visibility 5 miles    
Events Rain    
Averages and records for this station are not official NWS values.
T = Trace of Precipitation, MM = Missing Value Source: NWS Daily Summary

Daily Weather History Graph

Daily Weather History Graph

Search for Another Location

Airport or City:

Trip Planner

Search our weather history database for the weather conditions in past years. The results will help you decide how hot, cold, wet, or windy it might be!

Date:

Astronomy

Nov. 22, 2013 Rise Set
Actual Time 6:30 AM CST 4:50 PM CST
Civil Twilight 6:04 AM CST 5:16 PM CST
Nautical Twilight 5:34 AM CST 5:46 PM CST
Astronomical Twilight 5:04 AM CST 6:16 PM CST
Moon 9:17 PM CST (11/22) 10:17 AM CST (11/22)
Length of Visible Light 11h 12m
Length of Day
10h 19m
Waning Gibbous, 78% of the Moon is Illuminated
Nov 22
Waning Gibbous
Nov 25
Last Quarter
Dec 2
New
Dec 9
First Quarter
Dec 17
Full

Hourly Weather History & Observations

Time (CST) Temp. Dew Point Humidity Pressure Visibility Wind Dir Wind Speed Gust Speed Precip Events Conditions
12:14 AM 60.1 °F 57.9 °F 93% 30.25 in 7.0 mi SE 4.6 mph - N/A   Overcast
12:23 AM 60.1 °F 57.9 °F 93% 30.24 in 8.0 mi SE 4.6 mph - N/A   Overcast
12:56 AM 60.1 °F 57.9 °F 93% 30.27 in 8.0 mi East 3.5 mph - N/A   Overcast
1:16 AM 60.1 °F 57.0 °F 90% 30.24 in 7.0 mi ENE 3.5 mph - N/A   Overcast
1:56 AM 60.1 °F 57.0 °F 90% 30.27 in 7.0 mi Calm Calm - N/A   Overcast
2:56 AM 60.1 °F 57.0 °F 90% 30.26 in 8.0 mi Calm Calm - N/A   Overcast
3:56 AM 60.1 °F 55.9 °F 86% 30.26 in 10.0 mi Calm Calm - N/A   Overcast
4:46 AM 59.0 °F 55.9 °F 90% 30.23 in 10.0 mi ESE 3.5 mph - N/A   Overcast
4:56 AM 59.0 °F 55.9 °F 90% 30.26 in 10.0 mi East 3.5 mph - N/A   Overcast
5:26 AM 59.0 °F 55.9 °F 90% 30.22 in 10.0 mi ESE 8.1 mph - N/A   Mostly Cloudy
5:56 AM 57.9 °F 55.9 °F 93% 30.25 in 10.0 mi ESE 8.1 mph - N/A   Partly Cloudy
6:02 AM 57.9 °F 55.0 °F 90% 30.22 in 10.0 mi ESE 6.9 mph - N/A   Mostly Cloudy
6:56 AM 57.9 °F 55.9 °F 93% 30.27 in 9.0 mi Calm Calm - N/A   Mostly Cloudy
7:08 AM 59.0 °F 55.9 °F 90% 30.24 in 9.0 mi Calm Calm - N/A   Mostly Cloudy
7:56 AM 60.1 °F 55.9 °F 86% 30.27 in 10.0 mi ESE 4.6 mph - N/A   Overcast
8:19 AM 61.0 °F 57.0 °F 87% 30.25 in 10.0 mi SE 5.8 mph - N/A   Overcast
8:56 AM 62.1 °F 57.9 °F 86% 30.29 in 9.0 mi SSE 8.1 mph - N/A   Overcast
9:56 AM 64.0 °F 59.0 °F 84% 30.30 in 10.0 mi SE 4.6 mph - N/A   Overcast
10:56 AM 64.0 °F 59.0 °F 84% 30.30 in 10.0 mi North 6.9 mph - N/A   Overcast
11:05 AM 64.0 °F 59.0 °F 84% 30.27 in 8.0 mi North 4.6 mph - N/A   Overcast
11:39 AM 64.0 °F 59.0 °F 84% 30.26 in 7.0 mi North 4.6 mph - N/A   Overcast
11:56 AM 64.0 °F 59.0 °F 84% 30.28 in 8.0 mi North 4.6 mph - N/A   Overcast
12:54 PM 64.4 °F 60.8 °F 88% 30.22 in 5.0 mi East 9.2 mph - 0.00 in Rain Light Rain
12:56 PM 64.0 °F 60.1 °F 87% 30.25 in 4.0 mi East 9.2 mph - 0.00 in Rain Light Rain
1:04 PM 63.0 °F 61.0 °F 93% 30.21 in 3.0 mi East 8.1 mph - 0.01 in Rain Rain
1:11 PM 63.0 °F 61.0 °F 93% 30.21 in 2.0 mi ESE 6.9 mph - 0.02 in Rain Light Rain
1:25 PM 63.0 °F 61.0 °F 93% 30.18 in 2.0 mi ESE 9.2 mph - 0.03 in Rain Light Rain
1:37 PM 63.0 °F 61.0 °F 93% 30.20 in 2.0 mi ESE 5.8 mph - 0.04 in Rain Light Rain
1:45 PM 63.0 °F 61.0 °F 93% 30.19 in 2.0 mi ESE 6.9 mph - 0.04 in Rain Light Rain
1:48 PM 63.0 °F 61.0 °F 93% 30.19 in 2.0 mi ESE 6.9 mph - 0.04 in Rain Light Rain
1:56 PM 63.0 °F 61.0 °F 93% 30.22 in 2.0 mi SE 4.6 mph - 0.04 in Rain Light Rain
2:24 PM 63.0 °F 61.0 °F 93% 30.21 in 2.0 mi WNW 3.5 mph - 0.04 in Rain Light Rain
2:56 PM 63.0 °F 61.0 °F 93% 30.24 in 2.0 mi NNW 5.8 mph - 0.05 in   Overcast
3:56 PM 63.0 °F 61.0 °F 93% 30.24 in 2.0 mi Calm Calm - 0.00 in   Overcast
4:18 PM 63.0 °F 60.1 °F 90% 30.19 in 2.0 mi Calm Calm - N/A   Overcast
4:32 PM 62.1 °F 60.1 °F 93% 30.19 in 2.0 mi Calm Calm - N/A   Mostly Cloudy
4:41 PM 62.1 °F 60.1 °F 93% 30.19 in 4.0 mi Calm Calm - N/A   Mostly Cloudy
4:49 PM 62.1 °F 60.1 °F 93% 30.19 in 3.0 mi NNE 3.5 mph - N/A   Mostly Cloudy
4:56 PM 62.1 °F 60.1 °F 93% 30.23 in 3.0 mi North 4.6 mph - N/A   Mostly Cloudy
5:15 PM 62.1 °F 60.1 °F 93% 30.19 in 2.5 mi Calm Calm - N/A   Overcast
5:25 PM 62.1 °F 60.1 °F 93% 30.19 in 5.0 mi NNE 4.6 mph - N/A   Overcast
5:52 PM 62.6 °F 60.8 °F 94% 30.20 in 7.0 mi Calm Calm - N/A   Overcast
5:56 PM 62.1 °F 60.1 °F 93% 30.23 in 6.0 mi Calm Calm - N/A   Overcast
6:33 PM 62.1 °F 60.1 °F 93% 30.21 in 2.0 mi North 3.5 mph - N/A   Overcast
6:42 PM 62.1 °F 60.1 °F 93% 30.21 in 3.0 mi Calm Calm - N/A   Overcast
6:56 PM 62.1 °F 60.1 °F 93% 30.25 in 2.5 mi Calm Calm - N/A   Overcast
6:59 PM 62.1 °F 60.1 °F 93% 30.22 in 1.8 mi Calm Calm - N/A   Overcast
7:07 PM 62.1 °F 60.1 °F 93% 30.22 in 1.2 mi Calm Calm - N/A   Overcast
7:13 PM 62.1 °F 60.1 °F 93% 30.23 in 1.0 mi Calm Calm - N/A   Overcast
7:36 PM 62.1 °F 60.1 °F 93% 30.23 in 1.2 mi Calm Calm - N/A   Overcast
7:56 PM 62.1 °F 60.1 °F 93% 30.27 in 1.5 mi Calm Calm - N/A   Overcast
8:37 PM 62.1 °F 60.1 °F 93% 30.24 in 3.0 mi Calm Calm - N/A   Overcast
8:56 PM 62.1 °F 60.1 °F 93% 30.27 in 3.0 mi North 4.6 mph - N/A   Overcast
9:03 PM 62.1 °F 60.1 °F 93% 30.25 in 2.0 mi North 4.6 mph - N/A   Overcast
9:36 PM 62.1 °F 60.1 °F 93% 30.25 in 3.0 mi NNE 3.5 mph - N/A   Overcast
9:56 PM 62.1 °F 60.1 °F 93% 30.28 in 4.0 mi North 6.9 mph - N/A   Overcast
10:56 PM 61.0 °F 59.0 °F 93% 30.27 in 10.0 mi North 6.9 mph - N/A   Overcast
11:09 PM 61.0 °F 59.0 °F 93% 30.25 in 10.0 mi North 8.1 mph - N/A   Overcast
11:25 PM 60.1 °F 57.9 °F 93% 30.25 in 10.0 mi North 9.2 mph - N/A   Overcast
11:35 PM 60.1 °F 57.9 °F 93% 30.24 in 6.0 mi North 9.2 mph - N/A   Overcast
11:52 PM 59.0 °F 57.2 °F 94% 30.25 in 2.0 mi North 10.4 mph - N/A   Overcast
11:56 PM 59.0 °F 57.0 °F 93% 30.27 in 1.8 mi North 10.4 mph - N/A   Overcast